STARLINK-30475

decayed
NORAD ID: 57929 Int'l Des: 2023-147 Owner: SPXS Country: US Constellation: starlink
LEOCIRCULAR
グループ

STARLINK-30475について

説明を読み込み中...

高度履歴

Altitude vs Time

uPlot chart will show altitude changes over time

軌道要素

1 57929U 23147S 25084.72045287 .24991881 89410-5 62168-2 0 9997
2 57929 42.9769 334.9994 0015210 241.1782 177.6512 16.27746395 85042
Epoch: Mar 25, 2025 • Age: 4252 hours

現在のステータス

Position data unavailable
打ち上げ日 Sep 24, 2023
運用期間 1.9 years
落下予定日 Mar 25, 2025
タイプ internet

技術仕様

分類 Payload
質量 730.00 kg
乾燥質量 700.00 kg
総質量 730.00 kg
長さ 0.30 m
直径 4.10 m
スパン 29.00 m
形状 Box + pan
製造者 SPXS
バスタイプ Starlink V2M
フェーズステータス Unknown Transfer Status
所有者/国 SPXS/US

大規模コンステレーション

Loading constellations...